Regional Weather Roundup
Issued by NWS

Home | Current Version | Previous Version | Text Only | Print | Product List | Glossary Off
Versions: 1 2 3 4 5 6 7 8 9 10 11 12 13 14 15 16 17 18 19 20 21 22 23 24 25 26 27 28 29 30 31 32 33 34 35 36 37 38 39 40 41 42 43 44 45 46 47 48 49 50

000
ASUS45 KABQ 180001
RWRNM
NEW MEXICO REGIONAL WEATHER ROUNDUP
NATIONAL WEATHER SERVICE ALBUQUERQUE NM
500 PM MST TUE JAN 17 2017

NOTE: "FAIR" MEANS FEW OR NO CLOUDS BELOW 12,000 FEET AGL WITH NO
       SIGNIFICANT WEATHER OR OBSTRUCTIONS TO VISION.

      THIS PRODUCT IS RELEASED AS TWO VERSIONS.  ONE VERSION NEAR
      THE TOP OF THE HOUR CONTAINING PRELIMINARY DATA FROM ALBUQUERQUE
      AND OTHER STATIONS.  A FINAL VERSION WITH ADDITIONAL DATA IS
      ISSUED ABOUT 10 MINUTES AFTER THE HOUR.

NMZ501-503-504-510>518-180100-
NORTHWEST PLATEAU/NORTHCENTRAL MOUNTAINS

CITY           SKY/WX    TMP DP  RH WIND       PRES   REMARKS
FARMINGTON     FAIR      43  33  68 SW9       30.11S
6HR MIN TEMP:  38; 6HR MAX TEMP:  45;

LOS ALAMOS     CLOUDY    37  30  74 CALM      30.11S
SANTA FE       FAIR      43  29  57 N10       30.08S
6HR MIN TEMP:  40; 6HR MAX TEMP:  46;

TAOS           FAIR      37  21  52 CALM      30.11S
ANGEL FIRE     FAIR      27  20  75 W8        30.10S WCI  19

$$
NMZ402-403-502-505>509-180100-
WESTCENTRAL MOUNTAINS/SOUTHWEST MOUNTAINS

CITY           SKY/WX    TMP DP  RH WIND       PRES   REMARKS
GALLUP         FAIR      39  33  79 N10       30.12S WCI  32
6HR MIN TEMP:  35; 6HR MAX TEMP:  44;

GRANTS         FAIR      42  30  64 W3        30.11S
SILVER CITY    FAIR      46  32  57 SE6       30.08S

$$
NMZ407-409-411-412-180100-
SOUTHERN DESERTS

CITY           SKY/WX    TMP DP  RH WIND       PRES   REMARKS
DEMING         CLOUDY    47  42  83 E3        30.08S
6HR MIN TEMP:  46; 6HR MAX TEMP:  53; 6HR PCP:  0.02;

LAS CRUCES     MOCLDY    46  43  89 NE5       30.09S
HOLLOMAN AFB   LGT RAIN  44  43  97 S15       30.13R
ALAMOGORDO     LGT RAIN  43  43 100 SE8       30.12R
T OR C         FAIR      50  36  58 E3        30.06F
6HR MIN TEMP:  45; 6HR MAX TEMP:  52; 6HR PCP: TRACE;


$$
NMZ519>523-180100-
CENTRAL VALLEYS/CENTRAL HIGHLANDS

CITY           SKY/WX    TMP DP  RH WIND       PRES   REMARKS
ALBUQUERQUE    MOCLDY    47  34  60 W8        30.09S
6HR MIN TEMP:  44; 6HR MAX TEMP:  49;

DOUBLE EAGLE   PTCLDY    45  32  61 SW7       30.09F
MORIARTY ARPT  CLOUDY    41  32  69 CALM      30.10S
6HR MIN TEMP:  36; 6HR MAX TEMP:  43;

CLINES CORNERS FAIR      36  30  79 W8        30.09S WCI  30
6HR MIN TEMP:  30; 6HR MAX TEMP:  40;

BELEN          FAIR      47  32  55 CALM      30.09S
6HR MIN TEMP:  44; 6HR MAX TEMP:  49;

SOCORRO        FAIR      47  36  64 NW6       30.08S
6HR MIN TEMP:  46; 6HR MAX TEMP:  50;


$$
NMZ524>526-539-540-180100-
SOUTHCENTRAL MOUNTAINS

CITY           SKY/WX    TMP DP  RH WIND       PRES   REMARKS
RUIDOSO        CLOUDY    36  32  87 W8        30.10R WCI  29

$$
NMZ527>531-180100-
NORTHEAST HIGHLANDS/NORTHEAST PLAINS

CITY           SKY/WX    TMP DP  RH WIND       PRES   REMARKS
LAS VEGAS      FAIR      38  31  76 CALM      30.05R
6HR MIN TEMP:  31; 6HR MAX TEMP:  39;

RATON          FAIR      33  26  75 NE6       30.04S WCI  28
6HR MIN TEMP:  30; 6HR MAX TEMP:  37;

CLAYTON        FAIR      42  36  79 W7        30.04R
6HR MIN TEMP:  37; 6HR MAX TEMP:  47;


$$
NMZ532>537-180100-
EASTCENTRAL PLAINS

CITY           SKY/WX    TMP DP  RH WIND       PRES   REMARKS
TUCUMCARI      FAIR      48  36  63 W3        30.04R
6HR MIN TEMP:  44; 6HR MAX TEMP:  54;

CANNON AFB     CLOUDY    49  40  73 W7        30.08R
6HR MIN TEMP:  42; 6HR MAX TEMP:  53;

CLOVIS AIRPORT CLOUDY    48  37  66 S6        30.08R

$$
NMZ028-029-538-180100-
SOUTHEAST PLAINS

CITY           SKY/WX    TMP DP  RH WIND       PRES   REMARKS
ROSWELL        LGT RAIN  46  40  79 SE7       30.10R
6HR MIN TEMP:  46; 6HR MAX TEMP:  52; 6HR PCP:  0.01;

ARTESIA        RAIN      45  45 100 SW8       30.11R
CARLSBAD       LGT RAIN  46  40  79 W5        30.11R
6HR MIN TEMP:  44; 6HR MAX TEMP:  47; 6HR PCP: TRACE;

HOBBS          CLOUDY    48  39  71 E8        30.11R


$$




USA.gov is the U.S. government's official web portal to all federal, state and local government web resources and services.